Vertical_Velocity
7 -2 2 2 -1 -2 -2 7 7 -3 -6 -6 2 2 0 4 -4 1 -0 3 -2 -2 4 -2 -5 1 -4 2 -3 -2 2 1 1 -5 -2 2 -3 -5
-3 2 4 -0 -4 11 2 5 4 -7 8 -4 3 3 2 1 2 -2 0 0 0 -4 4 2 -8 -1 2 -6 -2 -2 3 -3 -2 -2 -2 -1 -2 -5
-0 -2 4 4 5 2 6 5 5 -1 1 3 -3 -0 2 7 5 4 -6 2 -4 -0 1 1 0 -4 0 -5 -2 1 -1 2 -1 -1 -1 -1 -2 -5
-0 2 -2 -1 -0 2 2 6 8 -6 -1 1 -4 4 2 1 -0 1 -4 -1 0 -1 2 -5 0 3 -6 1 -2 0 -1 -3 0 -1 -1 -0 -7 -4
0 2 -1 5 -1 6 3 5 4 -3 1 -3 0 -3 0 -0 -1 2 -0 -2 -3 1 -4 4 -0 -7 -1 2 -4 -1 -1 2 2 -4 -3 -6 -1 -2
3 3 5 11 -1 3 7 2 3 2 0 0 -3 -2 -1 -3 -1 1 -0 -0 0 1 0 5 -10 0 -2 -4 -2 1 0 -3 -5 -2 -1 -0 -0 -1
-0 1 3 11 9 7 2 -1 3 -2 -1 -8 -3 0 3 2 -1 2 -1 -1 -3 0 0 -4 -1 -2 -2 -0 -1 -2 -4 -3 -2 -2 -0 -0 1 0
-1 0 6 8 3 4 1 -2 -1 -6 -3 5 -1 -2 1 -2 -1 -4 -1 1 -0 -1 -2 1 0 -2 -3 -0 -1 -0 -3 -2 1 3 1 0 -1 -3
5 5 0 1 5 2 1 -1 2 -4 0 -3 5 4 -1 -7 -0 1 -1 -1 0 -2 -1 1 -1 -0 -2 -2 -2 0 3 0 -1 -0 -1 -0 -2 -1
5 4 6 -1 -1 -4 -4 -6 2 -0 0 2 -7 -6 0 -4 2 -2 -2 -1 -1 -3 2 -2 -2 -4 -2 1 1 1 3 -2 -1 -1 -0 -1 -1 -1
3 5 -2 1 -3 -2 2 -1 -1 -0 -10 -2 0 0 -0 -1 0 -1 -2 -3 1 2 -3 -4 -6 -7 1 -2 4 3 -1 2 -1 1 0 -1 0 -0
4 2 5 -0 4 -5 1 -2 -6 2 2 0 -1 -1 -0 -0 -0 -2 -1 -0 -3 -1 -2 -1 1 -6 -18 4 2 -1 -1 -0 -0 -0 -3 -2 -0 0
1 -0 4 1 -3 -5 -1 1 1 -1 -2 -0 -1 -1 -1 -3 -2 -1 -2 -2 -1 -1 -0 -3 1 2 3 -19 -14 -4 -6 -3 -5 -4 -4 -2 1 6
-4 -3 -5 -5 1 -0 -0 -0 -1 -0 -1 -1 -1 -2 -2 -1 -1 -1 -3 -1 -1 -2 0 2 0 2 -1 -8 -7 -3 -7 -6 -4 -7 -2 -3 -0 2
-1 -0 -1 1 0 -1 -0 0 0 -1 -0 -0 -1 -1 -1 -1 -4 -2 0 -2 -1 2 2 2 -0 -2 2 0 -2 -7 -9 -15 -3 -2 -5 5 -0 -2
0 1 2 0 1 -0 -0 0 -0 -0 -1 -1 -2 -1 -2 -2 -0 -0 -1 1 1 1 -1 -0 0 -3 -3 3 3 -5 -1 1 -4 4 -2 3 2 4
-4 -2 -1 -0 -0 -0 -0 -1 -1 -1 -1 -1 -1 -1 -1 -1 -0 -1 -1 -1 -1 -2 -1 -3 -1 1 3 -3 -9 -0 -3 -1 6 -2 -7 -8 6 -0
-2 -1 -2 -1 -1 -0 0 -1 -1 -1 -1 -1 -1 -1 -1 -1 -1 -1 -1 -2 -0 0 -4 -4 -5 -7 -0 -2 2 -1 -0 -1 -4 -4 3 -4 -6 1
1 -1 0 -0 0 0 -1 -1 -1 -0 -1 -1 -1 -1 -1 -1 -1 -0 1 -0 -1 -3 -1 -1 -4 -3 -9 -7 -3 14 -3 -2 -6 -2 -1 2 -3 -3
2 0 -0 -0 -0 -1 -1 -1 -0 -1 -1 -1 -2 -2 -1 -0 0 1 0 -0 -3 -3 -2 -1 0 0 0 1 -6 -10 6 -3 -1 -5 -6 2 5 2
-0 -0 -1 -1 -1 -2 -1 -1 -1 -1 -1 -2 -2 1 1 1 1 -0 0 -1 -2 -2 -3 -1 2 1 -1 -1 -5 -4 2 10 9 -2 -3 -5 -12 -13
-0 -0 -1 -1 -1 -1 -1 -1 -1 -2 -1 -1 0 1 1 -1 -2 -0 -1 -1 -2 -2 -2 1 0 -5 2 2 -2 0 -6 -3 8 5 3 5 3 -5
0 -0 -1 -0 -1 -1 -1 -0 -1 -1 -1 -0 0 0 0 -2 -1 -0 -1 -2 -3 -2 -0 -3 -4 -2 2 1 4 -2 -3 -2 -9 -12 -0 1 4 9
Height
1484 1488 1492 1496 1500 1505 1508 1510 1513 1516 1519 1522 1524 1525 1526 1525 1526 1530 1530 1531 1533 1532 1530 1527 1527 1527 1524 1522 1521 1520 1517 1514 1510 1509 1508 1504 1502 1500
1479 1482 1485 1491 1494 1498 1503 1504 1509 1514 1516 1519 1520 1521 1522 1522 1522 1525 1527 1527 1528 1527 1526 1523 1522 1521 1519 1518 1517 1516 1511 1509 1505 1502 1501 1498 1496 1494
1474 1477 1480 1484 1489 1493 1498 1501 1505 1509 1512 1515 1516 1518 1518 1518 1519 1520 1522 1523 1523 1524 1522 1519 1517 1517 1515 1514 1512 1510 1506 1503 1500 1497 1494 1492 1490 1488
1470 1472 1476 1480 1484 1488 1493 1496 1500 1503 1507 1510 1513 1515 1516 1515 1516 1517 1518 1520 1520 1519 1518 1516 1513 1512 1509 1509 1507 1504 1502 1499 1495 1492 1488 1486 1484 1480
1465 1468 1472 1474 1479 1483 1488 1491 1494 1498 1502 1505 1507 1512 1513 1514 1516 1516 1515 1516 1516 1515 1513 1511 1509 1507 1506 1504 1502 1500 1498 1494 1490 1487 1482 1480 1477 1473
1463 1465 1468 1471 1475 1479 1483 1487 1490 1494 1497 1501 1506 1510 1511 1513 1514 1514 1513 1513 1513 1510 1509 1506 1505 1505 1502 1501 1499 1496 1493 1489 1485 1481 1478 1473 1469 1465
1459 1461 1465 1469 1473 1477 1480 1484 1488 1491 1494 1499 1503 1505 1506 1509 1510 1511 1511 1511 1509 1507 1504 1504 1502 1501 1498 1497 1494 1491 1488 1484 1481 1477 1472 1468 1462 1458
1456 1459 1463 1467 1470 1475 1479 1482 1486 1491 1496 1499 1501 1503 1505 1506 1507 1509 1510 1509 1507 1504 1502 1501 1498 1497 1495 1493 1490 1487 1484 1480 1476 1472 1467 1462 1455 1451
1452 1455 1459 1464 1467 1472 1477 1483 1487 1491 1496 1498 1499 1500 1502 1504 1506 1506 1507 1507 1505 1502 1500 1497 1495 1494 1492 1490 1486 1483 1480 1476 1472 1467 1461 1455 1450 1444
1451 1454 1457 1461 1467 1471 1476 1482 1487 1490 1493 1496 1499 1501 1502 1503 1504 1504 1505 1505 1503 1499 1497 1494 1493 1491 1489 1485 1483 1481 1477 1472 1467 1461 1455 1449 1443 1438
1451 1455 1459 1463 1468 1474 1479 1483 1487 1490 1494 1497 1498 1499 1500 1501 1502 1502 1503 1502 1501 1498 1494 1492 1490 1487 1484 1481 1480 1477 1472 1467 1461 1456 1449 1443 1437 1431
1453 1458 1463 1467 1471 1476 1480 1484 1488 1490 1492 1495 1497 1498 1500 1500 1501 1501 1501 1500 1499 1496 1493 1491 1487 1484 1481 1478 1476 1471 1466 1461 1456 1450 1444 1438 1432 1424
1454 1460 1465 1470 1473 1477 1482 1485 1489 1490 1492 1495 1496 1497 1498 1500 1500 1500 1499 1498 1496 1494 1492 1489 1486 1483 1480 1474 1471 1467 1462 1456 1450 1445 1439 1433 1427 1421
1456 1461 1467 1471 1476 1480 1483 1486 1488 1491 1492 1494 1495 1497 1498 1499 1499 1498 1497 1496 1494 1492 1490 1488 1485 1483 1479 1474 1467 1463 1459 1453 1447 1440 1435 1429 1423 1416
1460 1465 1470 1474 1478 1481 1484 1487 1489 1491 1492 1494 1495 1496 1497 1497 1497 1496 1495 1493 1492 1490 1489 1487 1485 1482 1479 1474 1467 1461 1454 1447 1443 1439 1432 1425 1417 1410
1464 1468 1472 1476 1479 1482 1484 1487 1489 1491 1492 1494 1495 1495 1496 1495 1494 1494 1493 1492 1491 1490 1488 1486 1484 1481 1476 1473 1466 1459 1454 1449 1442 1436 1429 1422 1416 1409
1466 1470 1473 1477 1480 1482 1485 1487 1489 1491 1492 1493 1494 1494 1494 1493 1493 1492 1491 1490 1489 1487 1486 1484 1481 1478 1475 1469 1462 1458 1452 1446 1440 1434 1426 1418 1413 1406
1469 1471 1474 1478 1481 1483 1485 1487 1489 1490 1492 1492 1493 1493 1493 1492 1492 1491 1490 1489 1488 1486 1484 1481 1478 1473 1469 1466 1463 1457 1451 1443 1437 1431 1425 1418 1410 1406
1471 1473 1476 1479 1481 1483 1485 1487 1489 1490 1491 1492 1492 1492 1492 1491 1490 1489 1488 1488 1487 1485 1483 1480 1477 1473 1468 1462 1458 1457 1448 1440 1433 1428 1424 1418 1411 1404
1472 1475 1477 1480 1482 1484 1486 1487 1488 1489 1490 1491 1491 1491 1490 1489 1489 1488 1487 1486 1485 1484 1482 1480 1477 1474 1471 1467 1459 1452 1449 1441 1434 1427 1421 1416 1411 1405
1473 1476 1479 1481 1483 1485 1486 1487 1488 1489 1489 1489 1490 1489 1488 1488 1487 1487 1486 1485 1485 1483 1481 1479 1477 1474 1471 1466 1459 1452 1447 1443 1436 1428 1421 1413 1405 1397
1475 1478 1480 1482 1483 1485 1486 1487 1488 1488 1488 1488 1488 1487 1487 1486 1486 1486 1486 1485 1484 1483 1481 1478 1475 1472 1469 1464 1458 1452 1445 1439 1436 1431 1424 1419 1411 1401
1476 1478 1480 1482 1484 1485 1486 1487 1487 1487 1487 1487 1486 1486 1486 1486 1485 1485 1485 1484 1483 1482 1479 1476 1474 1472 1469 1464 1458 1451 1444 1438 1433 1428 1425 1420 1416 1410